Precipitable_Water
0.59 0.57 0.53 0.49 0.48 0.49 0.42 0.33 0.22 0.33 0.30 0.17 0.17 0.15 0.18 0.17 0.14 0.14 0.12 0.11 0.10 0.09 0.09 0.09 0.09 0.10 0.12 0.15 0.14 0.11 0.14 0.12 0.07 0.07 0.11 0.14 0.14 0.11 0.11 0.06 0.05 0.06 0.06 0.05
0.58 0.53 0.52 0.51 0.53 0.52 0.40 0.30 0.27 0.33 0.24 0.13 0.13 0.15 0.14 0.14 0.13 0.13 0.12 0.12 0.12 0.13 0.10 0.09 0.10 0.10 0.13 0.16 0.14 0.12 0.14 0.10 0.06 0.06 0.11 0.13 0.11 0.12 0.11 0.10 0.09 0.06 0.05 0.06
0.53 0.48 0.50 0.53 0.54 0.53 0.42 0.31 0.21 0.24 0.23 0.19 0.14 0.14 0.14 0.14 0.17 0.14 0.14 0.13 0.14 0.12 0.11 0.12 0.11 0.10 0.12 0.15 0.13 0.14 0.15 0.11 0.09 0.06 0.07 0.12 0.10 0.10 0.10 0.10 0.07 0.06 0.06 0.07
0.47 0.50 0.52 0.51 0.53 0.51 0.42 0.33 0.22 0.23 0.14 0.16 0.18 0.18 0.16 0.14 0.13 0.18 0.18 0.14 0.13 0.12 0.10 0.11 0.11 0.12 0.13 0.15 0.17 0.15 0.14 0.09 0.10 0.09 0.09 0.12 0.11 0.10 0.10 0.08 0.09 0.06 0.07 0.08
0.47 0.50 0.51 0.52 0.53 0.53 0.40 0.26 0.26 0.28 0.21 0.19 0.18 0.16 0.14 0.13 0.15 0.16 0.15 0.15 0.15 0.15 0.12 0.13 0.11 0.13 0.14 0.13 0.14 0.13 0.14 0.09 0.10 0.10 0.09 0.12 0.09 0.10 0.09 0.09 0.08 0.08 0.08 0.08
0.49 0.51 0.52 0.52 0.51 0.49 0.36 0.38 0.36 0.28 0.21 0.17 0.14 0.13 0.15 0.15 0.16 0.17 0.17 0.16 0.16 0.15 0.15 0.17 0.17 0.18 0.18 0.17 0.14 0.12 0.12 0.11 0.09 0.07 0.08 0.09 0.08 0.10 0.09 0.09 0.09 0.09 0.07 0.09
0.49 0.50 0.48 0.47 0.46 0.43 0.41 0.37 0.34 0.23 0.14 0.15 0.14 0.14 0.15 0.16 0.18 0.16 0.17 0.19 0.19 0.21 0.23 0.20 0.17 0.18 0.18 0.18 0.16 0.15 0.11 0.10 0.11 0.08 0.08 0.05 0.09 0.12 0.12 0.09 0.09 0.10 0.09 0.10
0.46 0.47 0.47 0.44 0.40 0.40 0.36 0.39 0.33 0.25 0.16 0.16 0.16 0.17 0.20 0.20 0.18 0.17 0.19 0.23 0.26 0.26 0.20 0.13 0.11 0.12 0.13 0.13 0.14 0.13 0.12 0.11 0.09 0.07 0.06 0.08 0.09 0.10 0.10 0.09 0.08 0.10 0.09 0.10
0.45 0.46 0.41 0.36 0.37 0.35 0.34 0.33 0.38 0.29 0.19 0.15 0.23 0.19 0.18 0.15 0.16 0.17 0.17 0.23 0.25 0.22 0.16 0.13 0.09 0.07 0.10 0.10 0.11 0.14 0.13 0.14 0.11 0.09 0.06 0.05 0.09 0.12 0.12 0.11 0.07 0.11 0.11 0.10
0.45 0.39 0.36 0.35 0.37 0.39 0.35 0.30 0.37 0.30 0.20 0.22 0.22 0.17 0.17 0.21 0.19 0.16 0.16 0.19 0.18 0.20 0.12 0.09 0.10 0.09 0.12 0.08 0.09 0.09 0.10 0.10 0.08 0.08 0.08 0.08 0.10 0.12 0.13 0.07 0.07 0.11 0.11 0.11
0.37 0.36 0.35 0.34 0.36 0.35 0.32 0.27 0.34 0.29 0.23 0.23 0.24 0.22 0.19 0.19 0.18 0.13 0.16 0.15 0.15 0.15 0.11 0.09 0.10 0.11 0.12 0.10 0.10 0.09 0.08 0.07 0.07 0.08 0.07 0.06 0.12 0.12 0.09 0.11 0.13 0.12 0.11 0.11
0.34 0.33 0.33 0.35 0.33 0.33 0.31 0.20 0.30 0.31 0.23 0.21 0.28 0.26 0.26 0.24 0.21 0.16 0.16 0.15 0.17 0.18 0.14 0.13 0.13 0.11 0.11 0.10 0.07 0.10 0.07 0.09 0.08 0.08 0.08 0.11 0.12 0.12 0.13 0.13 0.12 0.12 0.12 0.12
0.31 0.31 0.33 0.31 0.29 0.33 0.27 0.24 0.23 0.22 0.18 0.21 0.21 0.19 0.24 0.25 0.25 0.26 0.15 0.18 0.22 0.19 0.21 0.17 0.14 0.10 0.12 0.08 0.08 0.08 0.09 0.11 0.09 0.09 0.10 0.10 0.12 0.13 0.13 0.13 0.12 0.12 0.12 0.12
0.29 0.31 0.32 0.28 0.31 0.32 0.30 0.23 0.25 0.24 0.18 0.14 0.15 0.24 0.20 0.25 0.25 0.26 0.27 0.23 0.24 0.23 0.20 0.15 0.12 0.10 0.12 0.09 0.09 0.08 0.09 0.10 0.09 0.08 0.10 0.11 0.11 0.12 0.12 0.12 0.12 0.12 0.12 0.12
0.29 0.30 0.28 0.27 0.33 0.33 0.27 0.23 0.20 0.24 0.19 0.14 0.15 0.20 0.21 0.23 0.23 0.23 0.25 0.23 0.21 0.18 0.14 0.12 0.10 0.12 0.10 0.10 0.09 0.07 0.09 0.08 0.07 0.07 0.10 0.10 0.10 0.12 0.12 0.11 0.11 0.12 0.12 0.11
0.26 0.28 0.26 0.31 0.37 0.32 0.27 0.20 0.22 0.18 0.25 0.17 0.11 0.18 0.18 0.20 0.21 0.20 0.20 0.20 0.19 0.17 0.14 0.12 0.12 0.13 0.11 0.08 0.07 0.09 0.10 0.11 0.11 0.09 0.11 0.11 0.11 0.12 0.12 0.11 0.11 0.12 0.12 0.12
0.28 0.28 0.29 0.27 0.24 0.21 0.16 0.13 0.15 0.22 0.25 0.17 0.12 0.12 0.16 0.18 0.20 0.18 0.18 0.18 0.16 0.15 0.12 0.11 0.10 0.10 0.10 0.08 0.06 0.09 0.10 0.11 0.11 0.12 0.11 0.10 0.11 0.10 0.12 0.12 0.12 0.12 0.12 0.12
0.32 0.29 0.28 0.26 0.23 0.20 0.15 0.15 0.15 0.21 0.17 0.16 0.10 0.10 0.12 0.16 0.14 0.13 0.17 0.14 0.13 0.12 0.11 0.11 0.09 0.09 0.08 0.06 0.08 0.09 0.10 0.10 0.10 0.10 0.12 0.11 0.11 0.11 0.11 0.12 0.12 0.11 0.11 0.12
0.34 0.26 0.19 0.14 0.12 0.12 0.14 0.15 0.14 0.15 0.15 0.10 0.09 0.08 0.08 0.13 0.13 0.15 0.14 0.14 0.09 0.11 0.09 0.09 0.09 0.07 0.06 0.07 0.08 0.08 0.09 0.09 0.10 0.10 0.11 0.11 0.11 0.11 0.11 0.11 0.11 0.11 0.11 0.12
0.23 0.15 0.10 0.07 0.08 0.12 0.12 0.09 0.09 0.09 0.10 0.11 0.08 0.10 0.08 0.11 0.11 0.11 0.11 0.11 0.09 0.07 0.08 0.09 0.07 0.06 0.08 0.09 0.09 0.09 0.10 0.10 0.10 0.09 0.08 0.09 0.09 0.10 0.10 0.10 0.11 0.11 0.11 0.12
0.12 0.08 0.06 0.07 0.09 0.07 0.06 0.05 0.05 0.06 0.06 0.08 0.08 0.09 0.08 0.11 0.09 0.09 0.11 0.08 0.09 0.06 0.07 0.06 0.06 0.05 0.07 0.09 0.09 0.10 0.10 0.10 0.10 0.10 0.10 0.11 0.10 0.10 0.10 0.11 0.11 0.11 0.11 0.11
0.09 0.07 0.07 0.07 0.06 0.05 0.04 0.05 0.06 0.06 0.05 0.07 0.07 0.08 0.09 0.10 0.12 0.09 0.09 0.07 0.07 0.05 0.07 0.06 0.05 0.06 0.08 0.08 0.09 0.09 0.10 0.10 0.10 0.10 0.10 0.10 0.10 0.11 0.10 0.11 0.11 0.11 0.11 0.11
0.06 0.05 0.05 0.05 0.05 0.03 0.04 0.04 0.04 0.05 0.07 0.07 0.08 0.07 0.08 0.09 0.10 0.08 0.07 0.06 0.05 0.07 0.05 0.05 0.06 0.07 0.08 0.08 0.09 0.09 0.09 0.10 0.10 0.10 0.10 0.10 0.10 0.11 0.11 0.10 0.11 0.11 0.11 0.11
0.04 0.04 0.03 0.04 0.04 0.05 0.05 0.05 0.06 0.07 0.08 0.08 0.08 0.07 0.07 0.08 0.07 0.07 0.05 0.06 0.06 0.04 0.04 0.04 0.06 0.07 0.08 0.08 0.09 0.09 0.09 0.09 0.09 0.09 0.10 0.10 0.10 0.10 0.10 0.10 0.11 0.11 0.10 0.11
0.05 0.05 0.04 0.05 0.07 0.07 0.07 0.07 0.07 0.08 0.08 0.08 0.07 0.07 0.06 0.06 0.05 0.06 0.05 0.04 0.04 0.04 0.04 0.06 0.07 0.08 0.08 0.08 0.09 0.09 0.09 0.09 0.09 0.09 0.09 0.09 0.10 0.10 0.10 0.10 0.10 0.10 0.10 0.10
0.06 0.06 0.05 0.06 0.06 0.06 0.06 0.06 0.06 0.08 0.08 0.08 0.07 0.05 0.04 0.04 0.05 0.04 0.04 0.04 0.04 0.05 0.06 0.07 0.08 0.08 0.08 0.09 0.09 0.09 0.09 0.10 0.09 0.10 0.10 0.10 0.10 0.10 0.10 0.10 0.10 0.10 0.10 0.10
0.06 0.06 0.07 0.07 0.06 0.06 0.06 0.07 0.06 0.08 0.07 0.05 0.05 0.04 0.04 0.05 0.04 0.04 0.05 0.04 0.06 0.07 0.07 0.08 0.09 0.09 0.09 0.09 0.09 0.09 0.10 0.10 0.10 0.10 0.10 0.10 0.10 0.10 0.10 0.09 0.10 0.10 0.10 0.10
Wind_Speed
28 30 31 33 35 37 37 35 34 33 35 34 33 33 33 34 35 35 36 36 37 37 36 33 31 29 26 24 22 22 22 21 22 25 21 21 20 19 18 16 20 19 19 23
29 31 32 35 37 39 39 37 36 35 33 33 33 33 35 36 37 36 35 34 33 32 30 28 27 26 23 21 20 19 18 20 20 18 18 18 17 16 15 14 15 19 17 19
31 33 35 37 39 40 40 38 37 35 35 35 37 38 39 39 35 36 34 33 31 29 28 26 25 23 21 21 22 21 19 19 20 21 21 16 16 14 14 15 16 17 18 21
33 35 36 38 40 41 40 38 36 37 37 37 40 39 40 41 38 33 32 29 27 26 26 26 27 26 25 21 22 21 19 20 21 23 22 17 14 14 15 15 16 14 17 17
34 36 38 40 42 41 40 39 38 38 40 42 41 39 37 38 36 32 31 30 28 27 24 25 27 27 23 22 18 19 20 21 20 19 19 17 14 13 13 13 14 15 15 16
36 38 40 42 43 43 40 39 39 40 40 40 39 38 37 36 33 30 29 30 28 28 27 26 27 27 25 24 22 20 19 17 15 17 16 16 15 13 12 10 10 10 12 13
38 41 43 45 44 43 41 40 39 39 40 39 38 39 37 35 32 33 33 30 27 25 27 28 27 25 24 24 23 19 17 16 16 15 13 14 10 9 9 8 9 9 12 14
41 43 44 44 43 42 40 40 38 38 39 39 38 38 33 33 33 33 29 27 26 27 27 25 23 18 18 19 20 18 17 15 14 15 13 10 11 9 10 10 9 9 12 14
42 44 45 44 42 41 40 39 38 38 38 34 34 36 35 34 29 27 26 25 25 23 23 20 17 15 12 9 9 11 13 12 13 11 11 10 7 7 8 8 9 10 11 13
44 44 43 42 41 39 39 38 37 36 37 36 33 31 29 28 28 27 27 24 21 19 18 17 15 14 12 11 10 9 9 9 12 14 13 9 11 10 9 9 10 11 11 12
43 42 41 41 40 40 39 38 37 36 36 36 35 33 31 29 27 27 25 23 20 16 14 13 12 11 10 8 8 10 9 10 9 11 11 12 11 11 11 10 11 10 12 13
41 41 41 40 40 40 39 38 36 36 34 32 29 27 28 26 25 23 20 18 15 13 11 10 8 7 7 9 9 10 10 10 10 10 10 11 10 9 11 11 12 12 13 14
40 40 41 41 41 39 38 37 37 34 31 29 27 25 23 22 22 19 14 11 10 9 10 9 8 6 9 8 9 9 10 10 9 9 7 8 8 8 9 11 12 13 14 14
41 41 41 41 39 37 36 35 35 31 29 25 21 20 18 19 16 14 13 13 9 8 7 7 7 7 8 8 9 9 10 10 8 8 8 10 9 9 11 13 13 14 14 14
41 41 41 39 37 34 32 31 30 29 24 20 16 15 16 15 13 10 7 7 8 8 7 7 7 7 8 8 8 7 8 8 9 9 10 11 10 12 13 13 14 14 14 14
41 40 38 36 31 32 31 29 28 28 21 17 14 13 13 13 10 8 6 6 6 6 7 6 7 8 9 7 7 8 8 8 9 10 10 10 12 12 13 14 14 14 13 13
38 35 33 31 29 28 27 25 27 23 17 14 11 11 11 11 8 7 5 4 5 6 6 6 7 8 7 7 7 9 9 9 8 9 10 11 11 12 13 13 13 13 12 12
31 30 28 27 26 24 22 22 22 16 12 10 9 10 8 10 8 6 6 5 5 5 5 5 6 6 6 7 8 9 9 10 9 11 11 12 13 13 13 13 13 13 12 12
26 28 27 27 24 21 19 18 16 15 9 7 7 9 8 10 7 6 6 5 5 6 5 6 6 7 7 9 9 9 9 9 11 12 12 12 13 13 13 13 13 12 12 12
27 27 23 20 19 19 16 14 12 11 10 7 7 9 7 8 7 6 6 6 6 6 6 6 6 5 6 7 8 8 10 11 11 11 12 13 13 13 13 13 13 12 12 12
23 19 17 15 16 13 12 11 11 11 8 9 9 9 8 7 6 6 6 5 6 5 7 6 6 6 7 8 8 9 10 11 11 12 12 13 13 13 13 13 13 13 13 13
15 10 10 13 13 12 10 11 10 9 8 9 10 9 7 6 6 6 6 4 5 4 5 5 5 6 8 10 11 11 12 12 12 12 13 13 13 13 13 14 14 14 14 14
11 10 11 12 12 14 11 12 10 9 10 9 10 9 6 6 7 4 5 4 4 4 4 4 6 8 11 11 12 12 12 12 12 13 13 14 14 14 14 15 15 15 15 15
9 10 12 10 11 12 11 12 10 9 9 10 9 7 6 6 5 5 3 4 4 4 4 5 7 10 11 11 12 12 12 13 13 14 14 14 15 15 15 16 16 16 16 16
8 9 10 11 11 12 12 12 9 9 8 8 7 7 7 7 5 5 5 5 5 5 5 7 9 10 11 12 12 13 13 14 14 14 14 15 15 16 16 16 17 17 17 18
12 12 10 11 11 13 12 12 11 9 8 7 6 7 7 8 6 7 7 5 5 6 8 10 10 11 12 12 13 13 14 14 14 14 15 15 15 16 16 17 17 17 18 19
12 13 14 13 14 14 13 13 13 11 9 8 8 8 6 6 8 8 7 7 8 10 10 11 11 12 13 13 13 14 14 14 14 14 14 15 16 16 16 16 17 17 17 18
Wind_Direction
312 314 315 319 321 323 322 317 314 313 312 309 305 303 305 305 302 300 298 297 295 292 292 291 287 285 283 283 283 284 282 287 288 286 287 281 276 270 268 270 280 281 279 284
311 314 314 317 319 321 320 316 313 312 311 309 307 307 304 303 302 299 300 298 295 298 294 292 289 289 282 274 278 284 284 285 292 289 290 285 274 269 268 272 278 277 281 287
311 313 314 315 317 318 318 316 315 312 310 310 308 308 306 305 302 302 298 298 298 295 290 287 287 285 281 275 277 275 278 281 279 280 279 280 272 267 268 270 278 284 280 290
310 312 315 316 316 316 317 314 313 313 311 310 310 309 307 304 303 299 301 298 291 290 291 291 287 282 276 272 273 274 279 282 284 281 278 275 267 264 267 266 270 276 286 296
309 312 314 315 316 315 314 313 312 312 310 309 307 307 306 304 302 301 296 291 291 290 288 286 288 287 280 274 269 272 276 282 284 280 276 262 261 257 262 266 275 283 292 295
310 312 314 315 315 315 313 311 310 310 310 310 308 306 304 304 304 300 295 292 288 286 287 295 291 284 277 270 272 272 275 278 278 275 274 272 257 258 255 266 277 279 292 297
310 312 313 313 313 312 310 310 310 310 309 308 308 308 305 302 298 297 294 290 286 289 292 293 291 282 273 269 266 262 268 273 270 275 276 260 257 278 265 262 270 287 300 307
310 312 313 313 313 312 310 310 308 308 309 308 308 309 307 304 300 300 295 290 288 288 292 292 287 280 269 266 256 259 262 268 267 261 259 256 257 272 270 265 270 287 300 311
311 312 313 313 313 312 311 308 306 306 308 309 310 307 303 302 300 297 295 296 291 289 289 283 279 273 265 260 264 262 269 264 256 254 255 253 264 261 264 267 267 294 305 313
312 312 313 313 313 313 312 310 308 306 305 308 309 308 307 302 300 297 297 295 289 287 287 280 273 264 259 247 256 260 263 265 258 256 254 259 267 269 262 267 272 292 305 311
312 313 313 313 313 313 312 310 309 306 305 305 306 304 302 300 299 297 296 291 285 280 281 277 266 261 252 253 267 276 278 278 276 268 251 252 276 259 263 270 281 291 301 309
312 313 313 313 313 313 312 311 311 309 304 305 306 307 306 303 301 298 291 282 278 276 277 281 264 256 257 251 261 282 275 276 272 270 258 256 262 257 261 270 278 290 296 302
313 313 313 313 313 312 313 312 313 310 306 303 303 307 308 307 303 293 288 286 278 270 265 263 259 256 273 271 274 268 280 284 265 251 253 259 257 261 275 281 284 290 295 298
313 313 313 313 313 313 313 315 317 312 307 302 304 306 310 315 310 304 271 264 277 266 268 256 260 259 280 275 272 279 283 276 270 258 259 258 262 274 281 286 290 292 293 295
314 313 313 314 312 313 314 317 323 320 310 306 300 301 316 320 319 310 300 267 258 263 265 264 264 268 275 274 278 290 284 269 268 269 271 263 268 277 284 287 290 290 290 291
314 314 315 315 312 312 313 312 313 322 311 300 297 298 311 317 324 334 310 272 264 262 260 261 267 276 273 273 274 285 281 277 271 269 272 268 274 276 286 287 290 289 288 287
315 317 318 318 317 316 316 316 315 315 308 301 294 298 303 311 299 310 307 311 273 265 261 269 274 285 277 277 272 287 286 277 283 279 277 273 283 281 287 288 289 289 286 285
314 319 322 322 322 322 323 326 331 319 313 309 303 302 299 323 301 287 297 281 280 295 270 273 279 289 284 282 286 285 287 282 282 287 281 276 281 286 288 287 288 289 286 285
314 317 319 320 323 322 322 326 338 351 332 317 321 314 302 314 305 295 288 281 280 282 280 279 280 293 301 292 289 288 289 284 285 288 285 286 285 286 289 288 290 287 287 286
314 315 318 321 324 324 324 328 331 338 348 347 343 336 312 313 307 301 285 290 285 280 284 281 286 292 298 299 295 292 291 289 289 290 291 291 290 290 288 287 287 285 285 286
316 319 322 327 333 333 336 339 342 342 341 343 335 337 325 328 310 305 304 289 292 284 290 282 286 289 303 304 300 298 297 296 294 291 290 290 289 289 289 288 288 287 287 286
326 335 341 341 345 346 353 347 346 351 347 343 338 333 329 320 320 315 317 302 303 297 294 293 291 295 302 306 301 301 300 299 297 296 295 293 292 291 291 288 287 286 286 288
340 344 348 349 351 8 3 354 350 349 348 345 342 341 336 331 337 326 329 334 322 298 309 300 299 305 310 306 306 304 302 302 300 300 298 296 294 293 291 290 288 286 284 285
356 0 6 6 1 4 359 352 348 346 346 349 351 355 357 353 360 353 8 343 347 341 333 315 316 316 315 315 312 309 307 306 303 301 299 298 296 294 292 290 289 287 283 283
8 7 12 15 10 7 4 1 356 358 356 360 8 16 20 14 25 15 13 11 13 5 342 328 326 323 323 320 318 314 310 307 304 302 300 297 295 293 292 291 289 287 284 282
35 32 28 19 15 12 12 12 12 11 14 15 20 19 30 29 31 28 17 22 8 344 335 328 328 326 325 323 321 317 313 311 308 306 304 302 301 299 297 295 291 288 286 284
42 38 35 34 28 24 22 23 22 23 32 32 34 37 30 24 32 29 24 10 347 340 337 336 333 330 327 326 324 323 320 318 314 312 310 307 305 303 301 298 296 294 291 289